Time,TemperatureF,DewpointF,PressureIn,WindDirection,WindDirectionDegrees,WindSpeedMPH,WindSpeedGustMPH,Humidity,HourlyPrecipIn,Conditions,Clouds,dailyrainin,SoftwareType,DateUTC
2013-09-06 00:01:00,71.1,48.5,29.97,North,0,-999.0,0.0,45,0.00,,,0.00,WeatherCatV1.02B3,2013-09-06 06:01:00,
2013-09-06 00:06:00,70.7,48.2,29.97,North,0,-999.0,0.0,45,0.00,,,0.00,WeatherCatV1.02B3,2013-09-06 06:06:00,
2013-09-06 00:11:00,70.5,48.0,29.97,North,0,-999.0,0.0,45,0.00,,,0.00,WeatherCatV1.02B3,2013-09-06 06:11:00,
2013-09-06 00:16:00,70.5,48.2,29.97,North,0,-999.0,0.0,45,0.00,,,0.00,WeatherCatV1.02B3,2013-09-06 06:16:00,
2013-09-06 00:21:00,70.5,49.2,29.97,North,0,-999.0,0.0,47,0.00,,,0.00,WeatherCatV1.02B3,2013-09-06 06:21:00,
2013-09-06 00:26:00,70.3,49.1,29.97,North,0,-999.0,0.0,47,0.00,,,0.00,WeatherCatV1.02B3,2013-09-06 06:26:00,
2013-09-06 00:31:00,70.0,48.3,29.97,North,0,-999.0,0.0,46,0.00,,,0.00,WeatherCatV1.02B3,2013-09-06 06:31:00,
2013-09-06 00:36:00,70.0,48.1,29.97,North,0,-999.0,0.0,46,0.00,,,0.00,WeatherCatV1.02B3,2013-09-06 06:36:00,
2013-09-06 00:41:00,70.0,48.1,29.97,North,0,-999.0,0.0,46,0.00,,,0.00,WeatherCatV1.02B3,2013-09-06 06:41:00,
2013-09-06 00:46:00,69.8,48.6,29.97,North,0,-999.0,0.0,46,0.00,,,0.00,WeatherCatV1.02B3,2013-09-06 06:46:00,
2013-09-06 00:51:00,69.6,48.4,29.97,North,0,-999.0,0.0,47,0.00,,,0.00,WeatherCatV1.02B3,2013-09-06 06:51:00,
2013-09-06 00:56:00,69.4,48.3,29.97,North,0,-999.0,0.0,47,0.00,,,0.00,WeatherCatV1.02B3,2013-09-06 06:56:00,
2013-09-06 01:02:00,69.3,48.1,29.97,North,0,-999.0,0.0,47,0.00,,,0.00,WeatherCatV1.02B3,2013-09-06 07:02:00,
2013-09-06 01:07:00,69.3,48.1,29.97,North,0,-999.0,0.0,47,0.00,,,0.00,WeatherCatV1.02B3,2013-09-06 07:07:00,
2013-09-06 01:12:00,68.9,48.4,29.98,North,0,-999.0,0.0,48,0.00,,,0.00,WeatherCatV1.02B3,2013-09-06 07:12:00,
2013-09-06 01:17:00,68.7,48.8,29.98,North,0,-999.0,0.0,49,0.00,,,0.00,WeatherCatV1.02B3,2013-09-06 07:17:00,
2013-09-06 01:22:00,68.4,48.3,29.97,North,0,-999.0,0.0,49,0.00,,,0.00,WeatherCatV1.02B3,2013-09-06 07:22:00,
2013-09-06 01:27:00,68.2,48.3,29.98,North,0,-999.0,0.0,49,0.00,,,0.00,WeatherCatV1.02B3,2013-09-06 07:27:00,
2013-09-06 01:32:00,68.2,48.9,29.98,North,0,-999.0,0.0,50,0.00,,,0.00,WeatherCatV1.02B3,2013-09-06 07:32:00,
2013-09-06 01:37:00,68.0,48.7,29.97,North,0,-999.0,0.0,50,0.00,,,0.00,WeatherCatV1.02B3,2013-09-06 07:37:00,
2013-09-06 01:42:00,68.0,48.7,29.97,North,0,-999.0,0.0,50,0.00,,,0.00,WeatherCatV1.02B3,2013-09-06 07:42:00,
2013-09-06 01:47:00,68.2,49.4,29.97,North,0,-999.0,0.0,51,0.00,,,0.00,WeatherCatV1.02B3,2013-09-06 07:47:00,
2013-09-06 01:52:00,67.8,49.2,29.97,North,0,-999.0,0.0,51,0.00,,,0.00,WeatherCatV1.02B3,2013-09-06 07:52:00,
2013-09-06 01:57:00,67.8,49.1,29.97,North,0,-999.0,0.0,51,0.00,,,0.00,WeatherCatV1.02B3,2013-09-06 07:57:00,
2013-09-06 02:02:00,68.0,48.7,29.97,North,0,-999.0,0.0,51,0.00,,,0.00,WeatherCatV1.02B3,2013-09-06 08:02:00,
2013-09-06 02:07:00,68.0,49.2,29.97,North,0,-999.0,0.0,51,0.00,,,0.00,WeatherCatV1.02B3,2013-09-06 08:07:00,
2013-09-06 02:12:00,68.0,49.2,29.97,North,0,-999.0,0.0,51,0.00,,,0.00,WeatherCatV1.02B3,2013-09-06 08:12:00,
2013-09-06 02:17:00,67.6,49.5,29.97,North,0,-999.0,0.0,52,0.00,,,0.00,WeatherCatV1.02B3,2013-09-06 08:17:00,
2013-09-06 02:22:00,67.6,49.4,29.97,North,0,-999.0,0.0,52,0.00,,,0.00,WeatherCatV1.02B3,2013-09-06 08:22:00,
2013-09-06 02:28:00,67.8,49.5,29.97,North,0,-999.0,0.0,52,0.00,,,0.00,WeatherCatV1.02B3,2013-09-06 08:28:00,
2013-09-06 02:33:00,67.8,49.5,29.97,North,0,-999.0,0.0,53,0.00,,,0.00,WeatherCatV1.02B3,2013-09-06 08:33:00,
2013-09-06 02:38:00,68.0,50.2,29.96,North,0,-999.0,0.0,53,0.00,,,0.00,WeatherCatV1.02B3,2013-09-06 08:38:00,
2013-09-06 02:43:00,68.0,50.2,29.96,North,0,-999.0,0.0,53,0.00,,,0.00,WeatherCatV1.02B3,2013-09-06 08:43:00,
2013-09-06 02:48:00,68.2,50.2,29.97,North,0,-999.0,0.0,54,0.00,,,0.00,WeatherCatV1.02B3,2013-09-06 08:48:00,
2013-09-06 02:53:00,68.2,50.8,29.96,North,0,-999.0,0.0,54,0.00,,,0.00,WeatherCatV1.02B3,2013-09-06 08:53:00,
2013-09-06 02:58:00,68.2,51.3,29.96,North,0,-999.0,0.0,55,0.00,,,0.00,WeatherCatV1.02B3,2013-09-06 08:58:00,
2013-09-06 03:03:00,68.2,50.8,29.97,North,0,-999.0,0.0,54,0.00,,,0.00,WeatherCatV1.02B3,2013-09-06 09:03:00,
2013-09-06 03:08:00,68.2,50.8,29.97,North,0,-999.0,0.0,54,0.00,,,0.00,WeatherCatV1.02B3,2013-09-06 09:08:00,
2013-09-06 03:13:00,68.2,51.3,29.97,North,0,-999.0,0.0,55,0.00,,,0.00,WeatherCatV1.02B3,2013-09-06 09:13:00,
2013-09-06 03:18:00,68.2,51.3,29.97,North,0,-999.0,0.0,55,0.00,,,0.00,WeatherCatV1.02B3,2013-09-06 09:18:00,
2013-09-06 03:23:00,68.2,51.3,29.97,North,0,-999.0,0.0,55,0.00,,,0.00,WeatherCatV1.02B3,2013-09-06 09:23:00,
2013-09-06 03:28:00,68.5,51.5,29.97,North,0,-999.0,0.0,55,0.00,,,0.00,WeatherCatV1.02B3,2013-09-06 09:28:00,
2013-09-06 03:33:00,68.4,51.5,29.97,North,0,-999.0,0.0,55,0.00,,,0.00,WeatherCatV1.02B3,2013-09-06 09:33:00,
2013-09-06 03:38:00,68.2,51.3,29.97,North,0,-999.0,0.0,55,0.00,,,0.00,WeatherCatV1.02B3,2013-09-06 09:38:00,
2013-09-06 03:43:00,68.2,51.3,29.97,North,0,-999.0,0.0,55,0.00,,,0.00,WeatherCatV1.02B3,2013-09-06 09:43:00,
2013-09-06 03:48:00,68.2,51.3,29.97,North,0,-999.0,0.0,55,0.00,,,0.00,WeatherCatV1.02B3,2013-09-06 09:48:00,
2013-09-06 03:54:00,68.2,51.3,29.97,North,0,-999.0,0.0,55,0.00,,,0.00,WeatherCatV1.02B3,2013-09-06 09:54:00,
2013-09-06 03:59:00,68.2,51.8,29.97,North,0,-999.0,0.0,56,0.00,,,0.00,WeatherCatV1.02B3,2013-09-06 09:59:00,
2013-09-06 04:04:00,68.2,51.8,29.97,North,0,-999.0,0.0,56,0.00,,,0.00,WeatherCatV1.02B3,2013-09-06 10:04:00,
2013-09-06 04:09:00,68.0,51.5,29.97,North,0,-999.0,0.0,56,0.00,,,0.00,WeatherCatV1.02B3,2013-09-06 10:09:00,
2013-09-06 04:14:00,67.6,50.8,29.97,North,0,-999.0,0.0,55,0.00,,,0.00,WeatherCatV1.02B3,2013-09-06 10:14:00,
2013-09-06 04:19:00,67.6,51.3,29.97,North,0,-999.0,0.0,56,0.00,,,0.00,WeatherCatV1.02B3,2013-09-06 10:19:00,
2013-09-06 04:24:00,67.3,51.0,29.97,North,0,-999.0,0.0,56,0.00,,,0.00,WeatherCatV1.02B3,2013-09-06 10:24:00,
2013-09-06 04:29:00,67.1,51.3,29.97,North,0,-999.0,0.0,57,0.00,,,0.00,WeatherCatV1.02B3,2013-09-06 10:29:00,
2013-09-06 04:34:00,67.1,50.8,29.97,North,0,-999.0,0.0,57,0.00,,,0.00,WeatherCatV1.02B3,2013-09-06 10:34:00,
2013-09-06 04:39:00,66.9,50.7,29.97,North,0,-999.0,0.0,58,0.00,,,0.00,WeatherCatV1.02B3,2013-09-06 10:39:00,
2013-09-06 04:44:00,66.9,51.2,29.97,North,0,-999.0,0.0,57,0.00,,,0.00,WeatherCatV1.02B3,2013-09-06 10:44:00,
2013-09-06 04:49:00,66.7,51.2,29.97,North,0,-999.0,0.0,57,0.00,,,0.00,WeatherCatV1.02B3,2013-09-06 10:49:00,
2013-09-06 04:54:00,66.6,51.3,29.97,North,0,-999.0,0.0,58,0.00,,,0.00,WeatherCatV1.02B3,2013-09-06 10:54:00,
2013-09-06 04:59:00,66.4,51.7,29.97,North,0,-999.0,0.0,59,0.00,,,0.00,WeatherCatV1.02B3,2013-09-06 10:59:00,
2013-09-06 05:04:00,66.2,52.0,29.97,North,0,-999.0,0.0,60,0.00,,,0.00,WeatherCatV1.02B3,2013-09-06 11:04:00,
2013-09-06 05:09:00,66.0,51.3,29.97,North,0,-999.0,0.0,59,0.00,,,0.00,WeatherCatV1.02B3,2013-09-06 11:09:00,
2013-09-06 05:15:00,65.8,51.6,29.97,North,0,-999.0,0.0,60,0.00,,,0.00,WeatherCatV1.02B3,2013-09-06 11:15:00,
2013-09-06 05:20:00,65.7,51.9,29.97,North,0,-999.0,0.0,61,0.00,,,0.00,WeatherCatV1.02B3,2013-09-06 11:20:00,
2013-09-06 05:25:00,65.5,51.7,29.97,North,0,-999.0,0.0,61,0.00,,,0.00,WeatherCatV1.02B3,2013-09-06 11:25:00,
2013-09-06 05:30:00,65.3,51.5,29.97,North,0,-999.0,0.0,61,0.00,,,0.00,WeatherCatV1.02B3,2013-09-06 11:30:00,
2013-09-06 05:35:00,65.3,51.9,29.97,North,0,-999.0,0.0,62,0.00,,,0.00,WeatherCatV1.02B3,2013-09-06 11:35:00,
2013-09-06 05:40:00,65.1,51.7,29.97,North,0,-999.0,0.0,62,0.00,,,0.00,WeatherCatV1.02B3,2013-09-06 11:40:00,
2013-09-06 05:45:00,65.1,52.2,29.97,North,0,-999.0,0.0,63,0.00,,,0.00,WeatherCatV1.02B3,2013-09-06 11:45:00,
2013-09-06 05:50:00,64.9,52.4,29.98,North,0,-999.0,0.0,64,0.00,,,0.00,WeatherCatV1.02B3,2013-09-06 11:50:00,
2013-09-06 05:55:00,64.8,52.7,29.97,North,0,-999.0,0.0,65,0.00,,,0.00,WeatherCatV1.02B3,2013-09-06 11:55:00,
2013-09-06 06:00:00,64.8,52.7,29.97,North,0,-999.0,0.0,65,0.00,,,0.00,WeatherCatV1.02B3,2013-09-06 12:00:00,
2013-09-06 06:05:00,64.6,52.5,29.97,North,0,-999.0,0.0,65,0.00,,,0.00,WeatherCatV1.02B3,2013-09-06 12:05:00,
2013-09-06 06:10:00,64.6,52.5,29.97,North,0,-999.0,0.0,65,0.00,,,0.00,WeatherCatV1.02B3,2013-09-06 12:10:00,
2013-09-06 06:15:00,64.2,51.7,29.97,North,0,-999.0,0.0,64,0.00,,,0.00,WeatherCatV1.02B3,2013-09-06 12:15:00,
2013-09-06 06:20:00,64.0,51.6,29.97,North,0,-999.0,0.0,64,0.00,,,0.00,WeatherCatV1.02B3,2013-09-06 12:20:00,
2013-09-06 06:25:00,64.0,52.0,29.97,North,0,-999.0,0.0,65,0.00,,,0.00,WeatherCatV1.02B3,2013-09-06 12:25:00,
2013-09-06 06:30:00,63.3,51.7,29.98,North,0,-999.0,0.0,66,0.00,,,0.00,WeatherCatV1.02B3,2013-09-06 12:30:00,
2013-09-06 06:35:00,63.3,51.7,29.98,North,0,-999.0,0.0,66,0.00,,,0.00,WeatherCatV1.02B3,2013-09-06 12:35:00,
2013-09-06 06:40:00,63.1,52.0,29.98,North,0,-999.0,0.0,67,0.00,,,0.00,WeatherCatV1.02B3,2013-09-06 12:40:00,
2013-09-06 06:45:00,62.8,51.6,29.97,North,0,-999.0,0.0,67,0.00,,,0.00,WeatherCatV1.02B3,2013-09-06 12:45:00,
2013-09-06 06:50:00,62.6,51.0,29.98,North,0,-999.0,0.0,66,0.00,,,0.00,WeatherCatV1.02B3,2013-09-06 12:50:00,
2013-09-06 06:55:00,62.6,51.0,29.98,North,0,-999.0,0.0,66,0.00,,,0.00,WeatherCatV1.02B3,2013-09-06 12:55:00,
2013-09-06 07:00:00,62.4,50.9,29.98,North,0,-999.0,0.0,66,0.00,,,0.00,WeatherCatV1.02B3,2013-09-06 13:00:00,
2013-09-06 07:05:00,62.2,50.7,29.98,North,0,-999.0,0.0,66,0.00,,,0.00,WeatherCatV1.02B3,2013-09-06 13:05:00,
2013-09-06 07:10:00,62.4,50.9,29.98,North,0,-999.0,0.0,66,0.00,,,0.00,WeatherCatV1.02B3,2013-09-06 13:10:00,
2013-09-06 07:15:00,62.2,51.1,29.98,North,0,-999.0,0.0,67,0.00,,,0.00,WeatherCatV1.02B3,2013-09-06 13:15:00,
2013-09-06 07:20:00,62.4,51.3,29.98,North,0,-999.0,0.0,68,0.00,,,0.00,WeatherCatV1.02B3,2013-09-06 13:20:00,
2013-09-06 07:25:00,62.4,51.7,29.98,North,0,-999.0,0.0,68,0.00,,,0.00,WeatherCatV1.02B3,2013-09-06 13:25:00,
2013-09-06 07:30:00,62.8,52.0,29.98,North,0,-999.0,0.0,68,0.00,,,0.00,WeatherCatV1.02B3,2013-09-06 13:30:00,
2013-09-06 07:35:00,63.0,52.2,29.98,North,0,-999.0,0.0,68,0.00,,,0.00,WeatherCatV1.02B3,2013-09-06 13:35:00,
2013-09-06 07:40:00,63.1,52.8,29.98,North,0,-999.0,0.0,69,0.00,,,0.00,WeatherCatV1.02B3,2013-09-06 13:40:00,
2013-09-06 07:45:00,63.5,53.2,29.99,North,0,-999.0,0.0,69,0.00,,,0.00,WeatherCatV1.02B3,2013-09-06 13:45:00,
2013-09-06 07:50:00,63.9,53.1,29.99,North,0,-999.0,0.0,68,0.00,,,0.00,WeatherCatV1.02B3,2013-09-06 13:50:00,
2013-09-06 07:55:00,64.2,53.5,29.99,North,0,-999.0,0.0,68,0.00,,,0.00,WeatherCatV1.02B3,2013-09-06 13:55:00,
2013-09-06 08:01:00,64.6,53.8,29.99,North,0,-999.0,0.0,68,0.00,,,0.00,WeatherCatV1.02B3,2013-09-06 14:01:00,
2013-09-06 08:06:00,64.9,54.1,29.99,North,0,-999.0,0.0,68,0.00,,,0.00,WeatherCatV1.02B3,2013-09-06 14:06:00,
2013-09-06 08:11:00,65.7,54.4,29.99,North,0,-999.0,0.0,67,0.00,,,0.00,WeatherCatV1.02B3,2013-09-06 14:11:00,
2013-09-06 08:16:00,65.8,53.9,29.99,North,0,-999.0,0.0,65,0.00,,,0.00,WeatherCatV1.02B3,2013-09-06 14:16:00,
2013-09-06 08:21:00,66.7,54.1,29.99,North,0,-999.0,0.0,64,0.00,,,0.00,WeatherCatV1.02B3,2013-09-06 14:21:00,
2013-09-06 08:26:00,67.1,54.5,30.00,North,0,-999.0,0.0,64,0.00,,,0.00,WeatherCatV1.02B3,2013-09-06 14:26:00,
2013-09-06 08:31:00,68.0,53.8,30.00,North,0,-999.0,0.0,60,0.00,,,0.00,WeatherCatV1.02B3,2013-09-06 14:31:00,
2013-09-06 08:36:00,68.7,54.3,30.00,North,0,-999.0,0.0,60,0.00,,,0.00,WeatherCatV1.02B3,2013-09-06 14:36:00,
2013-09-06 08:41:00,69.1,53.7,29.99,North,0,-999.0,0.0,58,0.00,,,0.00,WeatherCatV1.02B3,2013-09-06 14:41:00,
2013-09-06 08:46:00,70.0,54.0,29.99,North,0,-999.0,0.0,57,0.00,,,0.00,WeatherCatV1.02B3,2013-09-06 14:46:00,
2013-09-06 08:51:00,70.7,53.7,29.99,North,0,-999.0,0.0,55,0.00,,,0.00,WeatherCatV1.02B3,2013-09-06 14:51:00,
2013-09-06 08:56:00,71.2,53.2,30.00,North,0,-999.0,0.0,53,0.00,,,0.00,WeatherCatV1.02B3,2013-09-06 14:56:00,
2013-09-06 09:01:00,72.7,54.0,30.00,North,0,-999.0,0.0,52,0.00,,,0.00,WeatherCatV1.02B3,2013-09-06 15:01:00,
2013-09-06 09:06:00,73.6,54.3,30.00,North,0,-999.0,0.0,51,0.00,,,0.00,WeatherCatV1.02B3,2013-09-06 15:06:00,
2013-09-06 09:11:00,74.7,54.9,30.00,North,0,-999.0,0.0,50,0.00,,,0.00,WeatherCatV1.02B3,2013-09-06 15:11:00,
2013-09-06 09:16:00,75.9,54.2,30.00,North,0,-999.0,0.0,47,0.00,,,0.00,WeatherCatV1.02B3,2013-09-06 15:16:00,
2013-09-06 09:21:00,77.2,54.1,30.00,North,0,-999.0,0.0,45,0.00,,,0.00,WeatherCatV1.02B3,2013-09-06 15:21:00,
2013-09-06 09:26:00,77.9,53.3,30.00,North,0,-999.0,0.0,44,0.00,,,0.00,WeatherCatV1.02B3,2013-09-06 15:26:00,
2013-09-06 09:31:00,79.2,53.5,30.01,North,0,-999.0,0.0,41,0.00,,,0.00,WeatherCatV1.02B3,2013-09-06 15:31:00,
2013-09-06 09:36:00,80.1,54.3,30.00,North,0,-999.0,0.0,41,0.00,,,0.00,WeatherCatV1.02B3,2013-09-06 15:36:00,
2013-09-06 09:41:00,80.4,53.2,30.01,North,0,-999.0,0.0,40,0.00,,,0.00,WeatherCatV1.02B3,2013-09-06 15:41:00,
2013-09-06 09:46:00,82.0,53.9,30.01,North,0,-999.0,0.0,38,0.00,,,0.00,WeatherCatV1.02B3,2013-09-06 15:46:00,
2013-09-06 09:51:00,82.9,54.7,30.00,North,0,-999.0,0.0,38,0.00,,,0.00,WeatherCatV1.02B3,2013-09-06 15:51:00,
2013-09-06 09:56:00,83.5,54.4,30.01,North,0,-999.0,0.0,34,0.00,,,0.00,WeatherCatV1.02B3,2013-09-06 15:56:00,
2013-09-06 10:01:00,84.4,51.2,30.01,North,0,-999.0,0.0,32,0.00,,,0.00,WeatherCatV1.02B3,2013-09-06 16:01:00,
2013-09-06 10:06:00,84.7,50.7,30.01,North,0,-999.0,0.0,31,0.00,,,0.00,WeatherCatV1.02B3,2013-09-06 16:06:00,
2013-09-06 10:12:00,85.1,51.1,30.00,North,0,-999.0,0.0,31,0.00,,,0.00,WeatherCatV1.02B3,2013-09-06 16:12:00,
2013-09-06 10:17:00,86.2,51.2,30.00,North,0,-999.0,0.0,30,0.00,,,0.00,WeatherCatV1.02B3,2013-09-06 16:17:00,
2013-09-06 10:22:00,86.2,48.0,30.00,North,0,-999.0,0.0,27,0.00,,,0.00,WeatherCatV1.02B3,2013-09-06 16:22:00,
2013-09-06 10:27:00,86.7,48.4,30.00,North,0,-999.0,0.0,27,0.00,,,0.00,WeatherCatV1.02B3,2013-09-06 16:27:00,
2013-09-06 10:32:00,88.0,49.5,30.00,North,0,-999.0,0.0,27,0.00,,,0.00,WeatherCatV1.02B3,2013-09-06 16:32:00,
2013-09-06 10:37:00,88.5,49.0,30.00,North,0,-999.0,0.0,27,0.00,,,0.00,WeatherCatV1.02B3,2013-09-06 16:37:00,
2013-09-06 10:42:00,89.2,46.3,30.00,North,0,-999.0,0.0,23,0.00,,,0.00,WeatherCatV1.02B3,2013-09-06 16:42:00,
2013-09-06 10:47:00,89.6,46.6,30.00,North,0,-999.0,0.0,23,0.00,,,0.00,WeatherCatV1.02B3,2013-09-06 16:47:00,
2013-09-06 10:52:00,89.8,46.7,30.00,North,0,-999.0,0.0,23,0.00,,,0.00,WeatherCatV1.02B3,2013-09-06 16:52:00,
2013-09-06 10:57:00,89.8,46.7,30.00,North,0,-999.0,0.0,23,0.00,,,0.00,WeatherCatV1.02B3,2013-09-06 16:57:00,
2013-09-06 11:02:00,90.1,48.1,30.00,North,0,-999.0,0.0,24,0.00,,,0.00,WeatherCatV1.02B3,2013-09-06 17:02:00,
2013-09-06 11:07:00,90.0,45.8,29.99,North,0,-999.0,0.0,22,0.00,,,0.00,WeatherCatV1.02B3,2013-09-06 17:07:00,
2013-09-06 11:12:00,89.8,44.6,29.99,North,0,-999.0,0.0,21,0.00,,,0.00,WeatherCatV1.02B3,2013-09-06 17:12:00,
2013-09-06 11:17:00,89.2,44.1,30.00,North,0,-999.0,0.0,21,0.00,,,0.00,WeatherCatV1.02B3,2013-09-06 17:17:00,
2013-09-06 11:22:00,89.2,45.3,29.99,North,0,-999.0,0.0,22,0.00,,,0.00,WeatherCatV1.02B3,2013-09-06 17:22:00,
2013-09-06 11:27:00,90.3,48.3,29.99,North,0,-999.0,0.0,24,0.00,,,0.00,WeatherCatV1.02B3,2013-09-06 17:27:00,
2013-09-06 11:32:00,91.0,48.9,29.99,North,0,-999.0,0.0,24,0.00,,,0.00,WeatherCatV1.02B3,2013-09-06 17:32:00,
2013-09-06 11:37:00,91.6,48.2,29.99,North,0,-999.0,0.0,23,0.00,,,0.00,WeatherCatV1.02B3,2013-09-06 17:37:00,
2013-09-06 11:42:00,92.5,48.9,29.99,North,0,-999.0,0.0,23,0.00,,,0.00,WeatherCatV1.02B3,2013-09-06 17:42:00,
2013-09-06 11:47:00,93.0,48.1,29.98,North,0,-999.0,0.0,22,0.00,,,0.00,WeatherCatV1.02B3,2013-09-06 17:47:00,
2013-09-06 11:52:00,93.4,47.5,29.98,North,0,-999.0,0.0,21,0.00,,,0.00,WeatherCatV1.02B3,2013-09-06 17:52:00,
2013-09-06 11:57:00,93.0,-99.9,29.98,North,0,-999.0,0.0,19,0.00,,,0.00,WeatherCatV1.02B3,2013-09-06 17:57:00,
2013-09-06 12:02:00,93.4,47.6,29.99,North,0,-999.0,0.0,21,0.00,,,0.00,WeatherCatV1.02B3,2013-09-06 18:02:00,
2013-09-06 12:07:00,93.9,-99.9,29.98,North,0,-999.0,0.0,19,0.00,,,0.00,WeatherCatV1.02B3,2013-09-06 18:07:00,
2013-09-06 12:12:00,93.7,-99.9,29.98,North,0,-999.0,0.0,19,0.00,,,0.00,WeatherCatV1.02B3,2013-09-06 18:12:00,
2013-09-06 12:17:00,93.4,-99.9,29.98,North,0,-999.0,0.0,19,0.00,,,0.00,WeatherCatV1.02B3,2013-09-06 18:17:00,
2013-09-06 12:22:00,93.6,-99.9,29.97,North,0,-999.0,0.0,19,0.00,,,0.00,WeatherCatV1.02B3,2013-09-06 18:22:00,
2013-09-06 12:27:00,93.4,-99.9,29.97,North,0,-999.0,0.0,19,0.00,,,0.00,WeatherCatV1.02B3,2013-09-06 18:27:00,
2013-09-06 12:32:00,93.6,-99.9,29.97,North,0,-999.0,0.0,19,0.00,,,0.00,WeatherCatV1.02B3,2013-09-06 18:32:00,
2013-09-06 12:38:00,93.7,-99.9,29.97,North,0,-999.0,0.0,19,0.00,,,0.00,WeatherCatV1.02B3,2013-09-06 18:38:00,
2013-09-06 12:43:00,94.1,-99.9,29.97,North,0,-999.0,0.0,19,0.00,,,0.00,WeatherCatV1.02B3,2013-09-06 18:43:00,
2013-09-06 12:48:00,94.1,-99.9,29.96,North,0,-999.0,0.0,19,0.00,,,0.00,WeatherCatV1.02B3,2013-09-06 18:48:00,
2013-09-06 12:53:00,94.3,-99.9,29.96,North,0,-999.0,0.0,19,0.00,,,0.00,WeatherCatV1.02B3,2013-09-06 18:53:00,
2013-09-06 12:58:00,94.5,-99.9,29.96,North,0,-999.0,0.0,19,0.00,,,0.00,WeatherCatV1.02B3,2013-09-06 18:58:00,
2013-09-06 13:03:00,93.9,-99.9,29.96,North,0,-999.0,0.0,19,0.00,,,0.00,WeatherCatV1.02B3,2013-09-06 19:03:00,
2013-09-06 13:08:00,94.1,-99.9,29.96,North,0,-999.0,0.0,19,0.00,,,0.00,WeatherCatV1.02B3,2013-09-06 19:08:00,
2013-09-06 13:13:00,94.5,-99.9,29.96,North,0,-999.0,0.0,19,0.00,,,0.00,WeatherCatV1.02B3,2013-09-06 19:13:00,
2013-09-06 13:18:00,94.6,-99.9,29.96,North,0,-999.0,0.0,19,0.00,,,0.00,WeatherCatV1.02B3,2013-09-06 19:18:00,
2013-09-06 13:23:00,94.6,-99.9,29.96,North,0,-999.0,0.0,19,0.00,,,0.00,WeatherCatV1.02B3,2013-09-06 19:23:00,
2013-09-06 13:28:00,95.2,-99.9,29.96,North,0,-999.0,0.0,19,0.00,,,0.00,WeatherCatV1.02B3,2013-09-06 19:28:00,
2013-09-06 13:33:00,95.2,-99.9,29.95,North,0,-999.0,0.0,19,0.00,,,0.00,WeatherCatV1.02B3,2013-09-06 19:33:00,
2013-09-06 13:38:00,95.4,-99.9,29.95,North,0,-999.0,0.0,19,0.00,,,0.00,WeatherCatV1.02B3,2013-09-06 19:38:00,
2013-09-06 13:43:00,94.6,-99.9,29.95,North,0,-999.0,0.0,19,0.00,,,0.00,WeatherCatV1.02B3,2013-09-06 19:43:00,
2013-09-06 13:48:00,94.6,-99.9,29.95,North,0,-999.0,0.0,19,0.00,,,0.00,WeatherCatV1.02B3,2013-09-06 19:48:00,
2013-09-06 13:53:00,94.8,-99.9,29.94,North,0,-999.0,0.0,19,0.00,,,0.00,WeatherCatV1.02B3,2013-09-06 19:53:00,
2013-09-06 13:58:00,94.6,-99.9,29.94,North,0,-999.0,0.0,19,0.00,,,0.00,WeatherCatV1.02B3,2013-09-06 19:58:00,
2013-09-06 14:03:00,94.6,-99.9,29.94,North,0,-999.0,0.0,19,0.00,,,0.00,WeatherCatV1.02B3,2013-09-06 20:03:00,
2013-09-06 14:08:00,94.1,-99.9,29.94,North,0,-999.0,0.0,19,0.00,,,0.00,WeatherCatV1.02B3,2013-09-06 20:08:00,
2013-09-06 14:13:00,94.3,-99.9,29.94,North,0,-999.0,0.0,19,0.00,,,0.00,WeatherCatV1.02B3,2013-09-06 20:13:00,
2013-09-06 14:18:00,94.6,-99.9,29.93,North,0,-999.0,0.0,19,0.00,,,0.00,WeatherCatV1.02B3,2013-09-06 20:18:00,
2013-09-06 14:23:00,95.0,-99.9,29.94,North,0,-999.0,0.0,19,0.00,,,0.00,WeatherCatV1.02B3,2013-09-06 20:23:00,
2013-09-06 14:28:00,95.4,-99.9,29.93,North,0,-999.0,0.0,19,0.00,,,0.00,WeatherCatV1.02B3,2013-09-06 20:28:00,
2013-09-06 14:33:00,95.9,-99.9,29.93,North,0,-999.0,0.0,19,0.00,,,0.00,WeatherCatV1.02B3,2013-09-06 20:33:00,
2013-09-06 14:38:00,96.3,-99.9,29.93,North,0,-999.0,0.0,19,0.00,,,0.00,WeatherCatV1.02B3,2013-09-06 20:38:00,
2013-09-06 14:44:00,96.1,-99.9,29.93,North,0,-999.0,0.0,19,0.00,,,0.00,WeatherCatV1.02B3,2013-09-06 20:44:00,
2013-09-06 14:49:00,95.4,-99.9,29.93,North,0,-999.0,0.0,19,0.00,,,0.00,WeatherCatV1.02B3,2013-09-06 20:49:00,
2013-09-06 14:54:00,95.7,-99.9,29.93,North,0,-999.0,0.0,19,0.00,,,0.00,WeatherCatV1.02B3,2013-09-06 20:54:00,
2013-09-06 14:59:00,95.7,-99.9,29.93,North,0,-999.0,0.0,19,0.00,,,0.00,WeatherCatV1.02B3,2013-09-06 20:59:00,
2013-09-06 15:04:00,95.9,-99.9,29.92,North,0,-999.0,0.0,19,0.00,,,0.00,WeatherCatV1.02B3,2013-09-06 21:04:00,
2013-09-06 15:09:00,96.3,-99.9,29.92,North,0,-999.0,0.0,19,0.00,,,0.00,WeatherCatV1.02B3,2013-09-06 21:09:00,
2013-09-06 15:14:00,97.3,-99.9,29.93,North,0,-999.0,0.0,19,0.00,,,0.00,WeatherCatV1.02B3,2013-09-06 21:14:00,
2013-09-06 15:19:00,97.2,-99.9,29.92,North,0,-999.0,0.0,19,0.00,,,0.00,WeatherCatV1.02B3,2013-09-06 21:19:00,
2013-09-06 15:24:00,97.0,-99.9,29.92,North,0,-999.0,0.0,19,0.00,,,0.00,WeatherCatV1.02B3,2013-09-06 21:24:00,
2013-09-06 15:29:00,96.4,-99.9,29.92,North,0,-999.0,0.0,19,0.00,,,0.00,WeatherCatV1.02B3,2013-09-06 21:29:00,
2013-09-06 15:34:00,96.1,-99.9,29.92,North,0,-999.0,0.0,19,0.00,,,0.00,WeatherCatV1.02B3,2013-09-06 21:34:00,
2013-09-06 15:39:00,95.5,-99.9,29.92,North,0,-999.0,0.0,19,0.00,,,0.00,WeatherCatV1.02B3,2013-09-06 21:39:00,
2013-09-06 15:44:00,94.6,-99.9,29.92,North,0,-999.0,0.0,19,0.00,,,0.00,WeatherCatV1.02B3,2013-09-06 21:44:00,
2013-09-06 15:49:00,93.6,-99.9,29.92,North,0,-999.0,0.0,19,0.00,,,0.00,WeatherCatV1.02B3,2013-09-06 21:49:00,
2013-09-06 15:54:00,93.4,-99.9,29.92,North,0,-999.0,0.0,19,0.00,,,0.00,WeatherCatV1.02B3,2013-09-06 21:54:00,
2013-09-06 15:59:00,92.7,-99.9,29.92,North,0,-999.0,0.0,19,0.00,,,0.00,WeatherCatV1.02B3,2013-09-06 21:59:00,
2013-09-06 16:04:00,92.3,-99.9,29.92,North,0,-999.0,0.0,19,0.00,,,0.00,WeatherCatV1.02B3,2013-09-06 22:04:00,
2013-09-06 16:09:00,91.0,-99.9,29.93,North,0,-999.0,0.0,19,0.00,,,0.00,WeatherCatV1.02B3,2013-09-06 22:09:00,
2013-09-06 16:15:00,90.3,-99.9,29.92,North,0,-999.0,0.0,19,0.00,,,0.00,WeatherCatV1.02B3,2013-09-06 22:15:00,
2013-09-06 16:20:00,89.8,-99.9,29.92,North,0,-999.0,0.0,19,0.00,,,0.00,WeatherCatV1.02B3,2013-09-06 22:20:00,
2013-09-06 16:25:00,89.2,-99.9,29.92,North,0,-999.0,0.0,19,0.00,,,0.00,WeatherCatV1.02B3,2013-09-06 22:25:00,
2013-09-06 16:30:00,89.1,-99.9,29.92,North,0,-999.0,0.0,19,0.00,,,0.00,WeatherCatV1.02B3,2013-09-06 22:30:00,
2013-09-06 16:35:00,88.9,-99.9,29.92,North,0,-999.0,0.0,19,0.00,,,0.00,WeatherCatV1.02B3,2013-09-06 22:35:00,
2013-09-06 16:40:00,88.5,-99.9,29.92,North,0,-999.0,0.0,19,0.00,,,0.00,WeatherCatV1.02B3,2013-09-06 22:40:00,
2013-09-06 16:45:00,88.7,-99.9,29.91,North,0,-999.0,0.0,19,0.00,,,0.00,WeatherCatV1.02B3,2013-09-06 22:45:00,
2013-09-06 16:50:00,88.5,-99.9,29.91,North,0,-999.0,0.0,19,0.00,,,0.00,WeatherCatV1.02B3,2013-09-06 22:50:00,
2013-09-06 16:55:00,88.0,-99.9,29.91,North,0,-999.0,0.0,19,0.00,,,0.00,WeatherCatV1.02B3,2013-09-06 22:55:00,
2013-09-06 17:00:00,87.8,-99.9,29.91,North,0,-999.0,0.0,19,0.00,,,0.00,WeatherCatV1.02B3,2013-09-06 23:00:00,
2013-09-06 17:05:00,87.6,-99.9,29.90,North,0,-999.0,0.0,19,0.00,,,0.00,WeatherCatV1.02B3,2013-09-06 23:05:00,
2013-09-06 17:10:00,87.3,-99.9,29.90,North,0,-999.0,0.0,19,0.00,,,0.00,WeatherCatV1.02B3,2013-09-06 23:10:00,
2013-09-06 17:15:00,87.3,-99.9,29.90,North,0,-999.0,0.0,19,0.00,,,0.00,WeatherCatV1.02B3,2013-09-06 23:15:00,
2013-09-06 17:20:00,86.9,-99.9,29.91,North,0,-999.0,0.0,19,0.00,,,0.00,WeatherCatV1.02B3,2013-09-06 23:20:00,
2013-09-06 17:25:00,87.1,-99.9,29.90,North,0,-999.0,0.0,19,0.00,,,0.00,WeatherCatV1.02B3,2013-09-06 23:25:00,
2013-09-06 17:30:00,87.3,-99.9,29.89,North,0,-999.0,0.0,19,0.00,,,0.00,WeatherCatV1.02B3,2013-09-06 23:30:00,
2013-09-06 17:35:00,87.1,-99.9,29.89,North,0,-999.0,0.0,19,0.00,,,0.00,WeatherCatV1.02B3,2013-09-06 23:35:00,
2013-09-06 17:41:00,86.7,43.1,29.90,North,0,-999.0,0.0,22,0.00,,,0.00,WeatherCatV1.02B3,2013-09-06 23:41:00,
2013-09-06 17:46:00,86.7,44.1,29.90,North,0,-999.0,0.0,24,0.00,,,0.00,WeatherCatV1.02B3,2013-09-06 23:46:00,
2013-09-06 17:51:00,86.4,43.8,29.90,North,0,-999.0,0.0,23,0.00,,,0.00,WeatherCatV1.02B3,2013-09-06 23:51:00,
2013-09-06 17:56:00,86.7,44.1,29.90,North,0,-999.0,0.0,23,0.00,,,0.00,WeatherCatV1.02B3,2013-09-06 23:56:00,
2013-09-06 18:01:00,86.2,44.7,29.90,North,0,-999.0,0.0,25,0.00,,,0.00,WeatherCatV1.02B3,2013-09-07 00:01:00,
2013-09-06 18:06:00,86.2,45.8,29.91,North,0,-999.0,0.0,25,0.00,,,0.00,WeatherCatV1.02B3,2013-09-07 00:06:00,
2013-09-06 18:11:00,85.6,44.3,29.91,North,0,-999.0,0.0,24,0.00,,,0.00,WeatherCatV1.02B3,2013-09-07 00:11:00,
2013-09-06 18:16:00,85.5,-99.9,29.91,North,0,-999.0,0.0,19,0.00,,,0.00,WeatherCatV1.02B3,2013-09-07 00:16:00,
2013-09-06 18:21:00,84.9,-99.9,29.91,North,0,-999.0,0.0,19,0.00,,,0.00,WeatherCatV1.02B3,2013-09-07 00:21:00,
2013-09-06 18:26:00,84.7,-99.9,29.92,North,0,-999.0,0.0,19,0.00,,,0.00,WeatherCatV1.02B3,2013-09-07 00:26:00,
2013-09-06 18:31:00,84.4,-99.9,29.91,North,0,-999.0,0.0,19,0.00,,,0.00,WeatherCatV1.02B3,2013-09-07 00:31:00,
2013-09-06 18:36:00,83.8,-99.9,29.92,North,0,-999.0,0.0,19,0.00,,,0.00,WeatherCatV1.02B3,2013-09-07 00:36:00,
2013-09-06 18:41:00,83.5,38.3,29.92,North,0,-999.0,0.0,19,0.00,,,0.00,WeatherCatV1.02B3,2013-09-07 00:41:00,
2013-09-06 18:46:00,83.1,39.0,29.92,North,0,-999.0,0.0,21,0.00,,,0.00,WeatherCatV1.02B3,2013-09-07 00:46:00,
2013-09-06 18:51:00,83.1,40.1,29.92,North,0,-999.0,0.0,22,0.00,,,0.00,WeatherCatV1.02B3,2013-09-07 00:51:00,
2013-09-06 18:56:00,82.4,40.5,29.92,North,0,-999.0,0.0,23,0.00,,,0.00,WeatherCatV1.02B3,2013-09-07 00:56:00,
2013-09-06 19:01:00,82.0,41.3,29.93,North,0,-999.0,0.0,24,0.00,,,0.00,WeatherCatV1.02B3,2013-09-07 01:01:00,
2013-09-06 19:06:00,81.9,42.2,29.93,North,0,-999.0,0.0,25,0.00,,,0.00,WeatherCatV1.02B3,2013-09-07 01:06:00,
2013-09-06 19:11:00,81.9,43.1,29.93,North,0,-999.0,0.0,26,0.00,,,0.00,WeatherCatV1.02B3,2013-09-07 01:11:00,
2013-09-06 19:16:00,81.1,42.7,29.93,North,0,-999.0,0.0,26,0.00,,,0.00,WeatherCatV1.02B3,2013-09-07 01:16:00,
2013-09-06 19:21:00,80.8,42.4,29.93,North,0,-999.0,0.0,26,0.00,,,0.00,WeatherCatV1.02B3,2013-09-07 01:21:00,
2013-09-06 19:26:00,80.2,42.9,29.94,North,0,-999.0,0.0,27,0.00,,,0.00,WeatherCatV1.02B3,2013-09-07 01:26:00,
2013-09-06 19:32:00,80.2,44.0,29.94,North,0,-999.0,0.0,28,0.00,,,0.00,WeatherCatV1.02B3,2013-09-07 01:32:00,
2013-09-06 19:37:00,79.7,43.5,29.94,North,0,-999.0,0.0,28,0.00,,,0.00,WeatherCatV1.02B3,2013-09-07 01:37:00,
2013-09-06 19:42:00,79.5,43.3,29.94,North,0,-999.0,0.0,28,0.00,,,0.00,WeatherCatV1.02B3,2013-09-07 01:42:00,
2013-09-06 19:47:00,79.2,43.0,29.94,North,0,-999.0,0.0,28,0.00,,,0.00,WeatherCatV1.02B3,2013-09-07 01:47:00,
2013-09-06 19:52:00,79.0,42.9,29.95,North,0,-999.0,0.0,28,0.00,,,0.00,WeatherCatV1.02B3,2013-09-07 01:52:00,
2013-09-06 19:57:00,79.0,43.9,29.95,North,0,-999.0,0.0,29,0.00,,,0.00,WeatherCatV1.02B3,2013-09-07 01:57:00,
2013-09-06 20:02:00,78.8,43.6,29.95,North,0,-999.0,0.0,29,0.00,,,0.00,WeatherCatV1.02B3,2013-09-07 02:02:00,
2013-09-06 20:07:00,78.4,44.5,29.95,North,0,-999.0,0.0,30,0.00,,,0.00,WeatherCatV1.02B3,2013-09-07 02:07:00,
2013-09-06 20:12:00,78.3,44.3,29.95,North,0,-999.0,0.0,30,0.00,,,0.00,WeatherCatV1.02B3,2013-09-07 02:12:00,
2013-09-06 20:17:00,78.3,45.9,29.95,North,0,-999.0,0.0,32,0.00,,,0.00,WeatherCatV1.02B3,2013-09-07 02:17:00,
2013-09-06 20:22:00,77.7,45.4,29.96,North,0,-999.0,0.0,32,0.00,,,0.00,WeatherCatV1.02B3,2013-09-07 02:22:00,
2013-09-06 20:27:00,77.5,45.3,29.97,North,0,-999.0,0.0,32,0.00,,,0.00,WeatherCatV1.02B3,2013-09-07 02:27:00,
2013-09-06 20:32:00,77.2,46.0,29.97,North,0,-999.0,0.0,33,0.00,,,0.00,WeatherCatV1.02B3,2013-09-07 02:32:00,
2013-09-06 20:37:00,77.0,45.6,29.97,North,0,-999.0,0.0,33,0.00,,,0.00,WeatherCatV1.02B3,2013-09-07 02:37:00,
2013-09-06 20:42:00,76.6,45.6,29.97,North,0,-999.0,0.0,33,0.00,,,0.00,WeatherCatV1.02B3,2013-09-07 02:42:00,
2013-09-06 20:48:00,76.5,45.1,29.97,North,0,-999.0,0.0,33,0.00,,,0.00,WeatherCatV1.02B3,2013-09-07 02:48:00,
2013-09-06 20:53:00,76.5,45.1,29.97,North,0,-999.0,0.0,33,0.00,,,0.00,WeatherCatV1.02B3,2013-09-07 02:53:00,
2013-09-06 20:58:00,76.5,45.1,29.97,North,0,-999.0,0.0,33,0.00,,,0.00,WeatherCatV1.02B3,2013-09-07 02:58:00,
2013-09-06 21:03:00,76.1,44.0,29.97,North,0,-999.0,0.0,32,0.00,,,0.00,WeatherCatV1.02B3,2013-09-07 03:03:00,
2013-09-06 21:08:00,75.9,44.0,29.97,North,0,-999.0,0.0,32,0.00,,,0.00,WeatherCatV1.02B3,2013-09-07 03:08:00,
2013-09-06 21:13:00,76.1,44.8,29.97,North,0,-999.0,0.0,33,0.00,,,0.00,WeatherCatV1.02B3,2013-09-07 03:13:00,
2013-09-06 21:18:00,75.6,45.2,29.97,North,0,-999.0,0.0,34,0.00,,,0.00,WeatherCatV1.02B3,2013-09-07 03:18:00,
2013-09-06 21:23:00,75.4,45.7,29.97,North,0,-999.0,0.0,35,0.00,,,0.00,WeatherCatV1.02B3,2013-09-07 03:23:00,
2013-09-06 21:28:00,74.8,45.2,29.97,North,0,-999.0,0.0,35,0.00,,,0.00,WeatherCatV1.02B3,2013-09-07 03:28:00,
2013-09-06 21:33:00,74.5,44.9,29.97,North,0,-999.0,0.0,35,0.00,,,0.00,WeatherCatV1.02B3,2013-09-07 03:33:00,
2013-09-06 21:38:00,74.1,46.0,29.97,North,0,-999.0,0.0,37,0.00,,,0.00,WeatherCatV1.02B3,2013-09-07 03:38:00,
2013-09-06 21:44:00,73.8,45.7,29.97,North,0,-999.0,0.0,37,0.00,,,0.00,WeatherCatV1.02B3,2013-09-07 03:44:00,
2013-09-06 21:49:00,73.6,46.3,29.97,North,0,-999.0,0.0,38,0.00,,,0.00,WeatherCatV1.02B3,2013-09-07 03:49:00,
2013-09-06 21:54:00,73.2,46.0,29.97,North,0,-999.0,0.0,38,0.00,,,0.00,WeatherCatV1.02B3,2013-09-07 03:54:00,
2013-09-06 21:59:00,72.9,45.7,29.98,North,0,-999.0,0.0,38,0.00,,,0.00,WeatherCatV1.02B3,2013-09-07 03:59:00,
2013-09-06 22:01:00,72.7,45.5,29.98,North,0,-999.0,0.0,38,0.00,,,0.00,WeatherCatV1.02B3,2013-09-07 04:01:00,
2013-09-06 22:03:00,72.7,46.3,29.97,North,0,-999.0,0.0,39,0.00,,,0.00,WeatherCatV1.02B3,2013-09-07 04:03:00,
2013-09-06 22:08:00,72.3,45.9,29.98,North,0,-999.0,0.0,39,0.00,,,0.00,WeatherCatV1.02B3,2013-09-07 04:08:00,
2013-09-06 22:13:00,72.1,45.8,29.98,North,0,-999.0,0.0,39,0.00,,,0.00,WeatherCatV1.02B3,2013-09-07 04:13:00,
2013-09-06 22:18:00,71.8,45.4,29.98,North,0,-999.0,0.0,39,0.00,,,0.00,WeatherCatV1.02B3,2013-09-07 04:18:00,
2013-09-06 22:23:00,71.8,45.4,29.98,North,0,-999.0,0.0,39,0.00,,,0.00,WeatherCatV1.02B3,2013-09-07 04:23:00,
2013-09-06 22:28:00,71.8,45.4,29.97,North,0,-999.0,0.0,39,0.00,,,0.00,WeatherCatV1.02B3,2013-09-07 04:28:00,
2013-09-06 22:34:00,71.8,45.4,29.98,North,0,-999.0,0.0,39,0.00,,,0.00,WeatherCatV1.02B3,2013-09-07 04:34:00,
2013-09-06 22:39:00,71.8,45.4,29.98,North,0,-999.0,0.0,39,0.00,,,0.00,WeatherCatV1.02B3,2013-09-07 04:39:00,
2013-09-06 22:44:00,71.8,45.4,29.97,North,0,-999.0,0.0,39,0.00,,,0.00,WeatherCatV1.02B3,2013-09-07 04:44:00,
2013-09-06 22:49:00,71.6,44.6,29.97,North,0,-999.0,0.0,39,0.00,,,0.00,WeatherCatV1.02B3,2013-09-07 04:49:00,
2013-09-06 22:54:00,71.8,45.4,29.97,North,0,-999.0,0.0,39,0.00,,,0.00,WeatherCatV1.02B3,2013-09-07 04:54:00,
2013-09-06 22:59:00,71.4,44.4,29.97,North,0,-999.0,0.0,38,0.00,,,0.00,WeatherCatV1.02B3,2013-09-07 04:59:00,
2013-09-06 23:04:00,71.4,44.2,29.97,North,0,-999.0,0.0,38,0.00,,,0.00,WeatherCatV1.02B3,2013-09-07 05:04:00,
2013-09-06 23:09:00,71.1,44.1,29.97,North,0,-999.0,0.0,38,0.00,,,0.00,WeatherCatV1.02B3,2013-09-07 05:09:00,
2013-09-06 23:14:00,71.1,44.8,29.97,North,0,-999.0,0.0,39,0.00,,,0.00,WeatherCatV1.02B3,2013-09-07 05:14:00,
2013-09-06 23:19:00,70.7,44.5,29.97,North,0,-999.0,0.0,39,0.00,,,0.00,WeatherCatV1.02B3,2013-09-07 05:19:00,
2013-09-06 23:24:00,70.5,45.1,29.97,North,0,-999.0,0.0,40,0.00,,,0.00,WeatherCatV1.02B3,2013-09-07 05:24:00,
2013-09-06 23:29:00,70.2,44.7,29.97,North,0,-999.0,0.0,40,0.00,,,0.00,WeatherCatV1.02B3,2013-09-07 05:29:00,
2013-09-06 23:34:00,70.3,45.5,29.97,North,0,-999.0,0.0,41,0.00,,,0.00,WeatherCatV1.02B3,2013-09-07 05:34:00,
2013-09-06 23:39:00,70.0,45.2,29.97,North,0,-999.0,0.0,41,0.00,,,0.00,WeatherCatV1.02B3,2013-09-07 05:39:00,
2013-09-06 23:44:00,70.0,45.2,29.97,North,0,-999.0,0.0,41,0.00,,,0.00,WeatherCatV1.02B3,2013-09-07 05:44:00,
2013-09-06 23:49:00,69.8,45.0,29.97,North,0,-999.0,0.0,41,0.00,,,0.00,WeatherCatV1.02B3,2013-09-07 05:49:00,
2013-09-06 23:54:00,69.8,45.0,29.96,North,0,-999.0,0.0,41,0.00,,,0.00,WeatherCatV1.02B3,2013-09-07 05:54:00,
2013-09-06 23:59:00,69.4,44.7,29.96,North,0,-999.0,0.0,41,0.00,,,0.00,WeatherCatV1.02B3,2013-09-07 05:59:00,